This is the latest recevied weather packets stored in our database for station/object KB3KBR-WX. If no packets are shown the sender has not sent any weather packets the latest 10 day(s).
| Time | Temp. | Humidity | Pressure | Rain* | Wind** | Luminosity | Snow |
|---|---|---|---|---|---|---|---|
| 1787695557 | 22.22° C | 72% | 1016.2 hPa | 0 mm | - | - | - |
| 1787695227 | 22.78° C | 71% | 1016.1 hPa | 0 mm | - | - | - |
| 1787694928 | 22.22° C | 71% | 1016.1 hPa | 0 mm | - | - | - |
| 1787694598 | 22.22° C | 71% | 1016.1 hPa | 0 mm | - | - | - |
| 1787693967 | 22.78° C | 70% | 1016.2 hPa | 0 mm | - | - | - |
| 1787693338 | 22.78° C | 70% | 1016 hPa | 0 mm | - | - | - |
| 1787693008 | 22.78° C | 70% | 1016.1 hPa | 0 mm | - | - | - |
| 1787692708 | 22.78° C | 69% | 1016.1 hPa | 0 mm | - | - | - |
| 1787692407 | 23.33° C | 70% | 1016 hPa | 0 mm | - | - | - |
| 1787692081 | 23.33° C | 70% | 1015.9 hPa | 0 mm | - | - | - |
| 1787691748 | 22.78° C | 69% | 1016 hPa | 0 mm | - | - | - |
| 1787691450 | 22.78° C | 68% | 1016 hPa | 0 mm | - | - | - |
| 1787691117 | 23.33° C | 69% | 1016 hPa | 0 mm | - | - | - |
| 1787690787 | 23.33° C | 69% | 1016 hPa | 0 mm | - | - | - |
| 1787690457 | 23.33° C | 68% | 1015.9 hPa | 0 mm | - | - | - |
| 1787690157 | 23.33° C | 69% | 1015.9 hPa | 0 mm | - | - | - |
| 1787689827 | 23.33° C | 68% | 1015.9 hPa | 0 mm | - | - | - |
| 1787689527 | 23.89° C | 68% | 1015.9 hPa | 0 mm | - | - | - |
| 1787689227 | 23.89° C | 68% | 1015.9 hPa | 0 mm | - | - | - |
| 1787688897 | 23.89° C | 66% | 1015.9 hPa | 0 mm | - | - | - |
| 1787688569 | 23.89° C | 69% | 1015.9 hPa | 0 mm | - | - | - |
| 1787688239 | 23.33° C | 68% | 1015.9 hPa | 0 mm | - | - | - |
| 1787687578 | 23.89° C | 69% | 1016.1 hPa | 0 mm | - | - | - |
| 1787687277 | 23.33° C | 71% | 1016.1 hPa | 0 mm | - | - | - |
| 1787686947 | 23.33° C | 69% | 1016.3 hPa | 0 mm | - | - | - |
* Rain latest hour (hover to see other rain measurements)
** Current wind speed in m/s (hover to see current wind gust speed)